Location: C�an Torras
(41.5052°N, 1.9280°E)
Time: 21:54:32
(UTC+00:00)

Cosmos 1943 - Pass Details

Date: 20 January 2021
Orbit: 834 x 849 km, 71.0° (Epoch: 02 March)

Event Time Altitude Azimuth Distance (km) Brightness Sun altitude
Rises 17:36:30 0° 334° (NNW) 3,415 6.5 -8.3°
Reaches altitude 10° 17:38:58 10° 332° (NNW) 2,473 5.8 -8.7°
Maximum altitude 17:44:37 73° 249° (WSW) 881 3.5 -9.7°
Drops below altitude 10° 17:50:13 10° 166° (SSE) 2,447 5.7 -10.7°
Sets 17:52:39 0° 164° (SSE) 3,375 6.4 -11.1°
